QPF
0.04 0.05 0.06 0.05 0.06 0.08 0.10 0.11 0.08 0.07 0.07 0.07 0.10 0.14 0.18 0.17 0.13 0.09 0.10 0.09 0.08 0.09 0.10 0.10 0.08 0.05 0.02 0.02 0.02 0.02 0.04 0.03 0.03 0.03 0.02 0.02 0.03 0.02 0.01 0.01 0.00 0.01 0.01
0.02 0.03 0.03 0.03 0.04 0.05 0.08 0.11 0.09 0.08 0.07 0.09 0.14 0.17 0.16 0.16 0.17 0.13 0.10 0.09 0.07 0.06 0.08 0.11 0.09 0.05 0.03 0.02 0.02 0.02 0.02 0.02 0.03 0.03 0.02 0.02 0.03 0.02 0.01 0.00 0.01 0.01 0.01
0.02 0.02 0.03 0.03 0.04 0.05 0.06 0.08 0.10 0.12 0.11 0.10 0.12 0.17 0.21 0.16 0.17 0.19 0.14 0.10 0.06 0.04 0.05 0.08 0.07 0.05 0.04 0.02 0.03 0.03 0.02 0.02 0.03 0.03 0.02 0.02 0.01 0.01 0.01 0.01 0.01 0.01 0.01
0.02 0.02 0.03 0.03 0.03 0.05 0.05 0.05 0.07 0.10 0.12 0.12 0.12 0.14 0.19 0.19 0.19 0.20 0.17 0.14 0.11 0.06 0.04 0.05 0.06 0.05 0.05 0.04 0.03 0.03 0.01 0.01 0.02 0.02 0.01 0.01 0.01 0.01 0.01 0.00 0.01 0.01 0.01
0.01 0.02 0.03 0.03 0.03 0.03 0.04 0.05 0.06 0.07 0.10 0.14 0.14 0.15 0.16 0.15 0.19 0.16 0.16 0.16 0.17 0.11 0.05 0.04 0.05 0.04 0.04 0.03 0.02 0.03 0.03 0.01 0.01 0.01 0.01 0.01 0.01 0.01 0.01 0.01 0.01 0.01 0.01
0.00 0.01 0.01 0.02 0.03 0.03 0.03 0.04 0.05 0.06 0.07 0.11 0.17 0.17 0.15 0.14 0.16 0.17 0.14 0.12 0.13 0.12 0.10 0.06 0.03 0.02 0.03 0.04 0.03 0.03 0.03 0.03 0.01 0.01 0.01 0.00 0.01 0.01 0.01 0.01 0.01 0.01 0.01
0.00 0.00 0.01 0.01 0.01 0.02 0.02 0.03 0.04 0.06 0.07 0.10 0.14 0.16 0.16 0.15 0.18 0.18 0.15 0.13 0.12 0.12 0.13 0.11 0.05 0.02 0.01 0.03 0.03 0.03 0.02 0.03 0.02 0.01 0.01 0.01 0.00 0.01 0.00 0.00 0.01 0.00 0.01
0.01 0.01 0.01 0.01 0.01 0.01 0.02 0.03 0.05 0.06 0.07 0.10 0.11 0.15 0.15 0.13 0.12 0.16 0.15 0.12 0.12 0.14 0.13 0.13 0.11 0.08 0.03 0.01 0.01 0.02 0.03 0.02 0.02 0.02 0.01 0.01 0.00 0.01 0.01 0.00 0.00 0.01 0.01
0.01 0.01 0.00 0.01 0.02 0.01 0.01 0.02 0.04 0.05 0.07 0.10 0.13 0.14 0.10 0.09 0.12 0.13 0.12 0.12 0.12 0.12 0.13 0.15 0.14 0.12 0.10 0.04 0.02 0.01 0.02 0.03 0.03 0.01 0.01 0.01 0.01 0.01 0.00 0.00 0.00 0.00 0.01
0.00 0.01 0.00 0.00 0.01 0.01 0.01 0.01 0.03 0.03 0.03 0.05 0.09 0.14 0.13 0.11 0.13 0.13 0.10 0.10 0.12 0.11 0.11 0.11 0.12 0.15 0.16 0.11 0.06 0.03 0.01 0.01 0.03 0.03 0.02 0.02 0.01 0.01 0.01 0.01 0.01 0.01 0.01
0.00 0.00 0.00 0.00 0.00 0.00 0.01 0.01 0.01 0.02 0.02 0.02 0.04 0.07 0.09 0.10 0.10 0.12 0.12 0.10 0.10 0.10 0.12 0.13 0.12 0.14 0.16 0.15 0.10 0.07 0.05 0.02 0.02 0.04 0.04 0.03 0.01 0.01 0.01 0.01 0.01 0.01 0.01
0.00 0.00 0.00 0.01 0.01 0.00 0.00 0.01 0.01 0.02 0.02 0.03 0.03 0.04 0.05 0.05 0.06 0.06 0.08 0.10 0.08 0.08 0.11 0.13 0.14 0.13 0.14 0.16 0.13 0.11 0.08 0.04 0.02 0.02 0.04 0.05 0.04 0.02 0.01 0.01 0.01 0.01 0.01
0.00 0.00 0.00 0.01 0.01 0.01 0.01 0.00 0.00 0.01 0.01 0.02 0.03 0.04 0.04 0.04 0.05 0.07 0.06 0.08 0.09 0.07 0.07 0.09 0.10 0.11 0.12 0.17 0.18 0.17 0.12 0.07 0.05 0.03 0.03 0.03 0.05 0.05 0.03 0.02 0.02 0.02 0.02
0.00 0.00 0.00 0.00 0.00 0.01 0.01 0.00 0.00 0.00 0.01 0.01 0.02 0.02 0.03 0.04 0.04 0.06 0.06 0.06 0.07 0.07 0.05 0.05 0.06 0.07 0.11 0.15 0.21 0.25 0.17 0.13 0.09 0.05 0.03 0.02 0.02 0.04 0.05 0.04 0.04 0.04 0.03
0.00 0.00 0.00 0.00 0.00 0.00 0.01 0.01 0.01 0.00 0.01 0.01 0.01 0.02 0.02 0.03 0.04 0.05 0.06 0.06 0.07 0.07 0.05 0.04 0.07 0.09 0.10 0.12 0.17 0.22 0.19 0.18 0.15 0.11 0.07 0.04 0.02 0.02 0.03 0.04 0.04 0.05 0.04
0.00 0.00 0.00 0.00 0.00 0.00 0.00 0.01 0.01 0.01 0.01 0.01 0.02 0.03 0.03 0.03 0.04 0.06 0.05 0.05 0.06 0.06 0.05 0.03 0.04 0.08 0.14 0.15 0.16 0.18 0.20 0.22 0.19 0.14 0.12 0.08 0.04 0.03 0.02 0.02 0.03 0.03 0.03
0.00 0.00 0.00 0.01 0.01 0.00 0.00 0.01 0.01 0.01 0.01 0.01 0.02 0.03 0.03 0.04 0.07 0.08 0.07 0.07 0.06 0.06 0.04 0.03 0.03 0.04 0.09 0.15 0.18 0.19 0.21 0.23 0.20 0.16 0.12 0.10 0.07 0.05 0.04 0.04 0.03 0.02 0.02
0.00 0.00 0.00 0.00 0.00 0.00 0.00 0.00 0.00 0.01 0.01 0.01 0.01 0.02 0.03 0.03 0.05 0.08 0.08 0.07 0.06 0.06 0.05 0.03 0.04 0.03 0.04 0.09 0.15 0.20 0.22 0.21 0.21 0.19 0.14 0.11 0.09 0.06 0.04 0.04 0.03 0.02 0.02
0.00 0.00 0.00 0.00 0.00 0.00 0.00 0.00 0.00 0.01 0.01 0.01 0.01 0.01 0.02 0.03 0.03 0.04 0.05 0.05 0.05 0.06 0.07 0.04 0.03 0.03 0.04 0.05 0.09 0.16 0.20 0.21 0.19 0.19 0.17 0.13 0.10 0.08 0.06 0.04 0.03 0.02 0.02
0.00 0.00 0.00 0.00 0.00 0.00 0.00 0.00 0.00 0.00 0.01 0.01 0.01 0.01 0.02 0.02 0.03 0.03 0.04 0.05 0.05 0.07 0.07 0.05 0.03 0.04 0.05 0.05 0.06 0.08 0.13 0.17 0.19 0.20 0.18 0.16 0.13 0.10 0.08 0.05 0.03 0.02 0.02
0.00 0.00 0.00 0.00 0.00 0.00 0.00 0.00 0.00 0.00 0.00 0.00 0.00 0.01 0.01 0.01 0.02 0.03 0.03 0.04 0.05 0.06 0.07 0.06 0.04 0.04 0.04 0.05 0.05 0.04 0.06 0.11 0.18 0.21 0.21 0.18 0.15 0.11 0.08 0.07 0.05 0.04 0.03
0.00 0.00 0.00 0.00 0.00 0.00 0.00 0.00 0.00 0.00 0.00 0.00 0.00 0.00 0.01 0.01 0.02 0.02 0.03 0.04 0.05 0.05 0.05 0.05 0.05 0.04 0.04 0.05 0.07 0.07 0.07 0.08 0.11 0.14 0.17 0.17 0.17 0.13 0.08 0.06 0.05 0.05 0.04
0.00 0.00 0.00 0.00 0.00 0.00 0.00 0.00 0.00 0.00 0.00 0.00 0.00 0.00 0.00 0.01 0.01 0.01 0.02 0.03 0.05 0.05 0.05 0.05 0.04 0.03 0.03 0.05 0.07 0.08 0.08 0.07 0.06 0.09 0.15 0.17 0.17 0.14 0.11 0.09 0.09 0.09 0.09
0.00 0.00 0.00 0.00 0.00 0.00 0.00 0.00 0.00 0.00 0.01 0.01 0.00 0.00 0.00 0.01 0.01 0.01 0.02 0.02 0.02 0.03 0.04 0.03 0.03 0.04 0.05 0.07 0.09 0.09 0.09 0.10 0.11 0.13 0.15 0.16 0.16 0.14 0.14 0.15 0.16 0.14 0.13
0.00 0.00 0.00 0.00 0.00 0.00 0.00 0.00 0.00 0.00 0.01 0.01 0.00 0.00 0.01 0.01 0.01 0.01 0.01 0.02 0.03 0.03 0.04 0.04 0.04 0.05 0.06 0.07 0.09 0.09 0.08 0.09 0.10 0.11 0.12 0.13 0.14 0.15 0.16 0.15 0.17 0.19 0.18
0.00 0.00 0.00 0.00 0.00 0.00 0.00 0.00 0.00 0.00 0.01 0.01 0.00 0.00 0.01 0.01 0.01 0.01 0.02 0.02 0.03 0.04 0.04 0.04 0.05 0.06 0.06 0.07 0.07 0.07 0.07 0.07 0.09 0.10 0.11 0.12 0.13 0.16 0.18 0.17 0.17 0.19 0.19
MSLP
1013.74 1013.60 1013.41 1013.20 1013.00 1012.84 1012.72 1012.67 1012.66 1012.68 1012.72 1012.77 1012.83 1012.88 1012.94 1013.00 1013.07 1013.14 1013.21 1013.27 1013.32 1013.36 1013.40 1013.45 1013.53 1013.64 1013.79 1013.96 1014.15 1014.35 1014.54 1014.73 1014.92 1015.13 1015.36 1015.63 1015.93 1016.25 1016.58 1016.88 1017.14 1017.32 1017.44
1013.73 1013.58 1013.39 1013.19 1013.00 1012.83 1012.71 1012.62 1012.58 1012.57 1012.58 1012.60 1012.64 1012.68 1012.73 1012.79 1012.86 1012.93 1012.99 1013.05 1013.10 1013.15 1013.21 1013.29 1013.41 1013.55 1013.72 1013.91 1014.11 1014.31 1014.50 1014.68 1014.87 1015.09 1015.34 1015.63 1015.96 1016.32 1016.68 1017.01 1017.28 1017.48 1017.61
1013.68 1013.53 1013.36 1013.17 1013.00 1012.85 1012.73 1012.63 1012.56 1012.51 1012.48 1012.47 1012.48 1012.50 1012.54 1012.58 1012.64 1012.69 1012.74 1012.78 1012.82 1012.87 1012.93 1013.03 1013.17 1013.35 1013.55 1013.77 1014.00 1014.21 1014.42 1014.62 1014.82 1015.05 1015.32 1015.63 1015.98 1016.36 1016.74 1017.09 1017.38 1017.60 1017.75
1013.61 1013.46 1013.32 1013.17 1013.04 1012.91 1012.80 1012.69 1012.59 1012.51 1012.44 1012.38 1012.36 1012.35 1012.36 1012.39 1012.42 1012.45 1012.47 1012.48 1012.49 1012.52 1012.58 1012.68 1012.84 1013.04 1013.28 1013.54 1013.80 1014.06 1014.29 1014.52 1014.75 1015.00 1015.29 1015.62 1015.99 1016.38 1016.77 1017.12 1017.43 1017.66 1017.83
1013.54 1013.41 1013.29 1013.19 1013.10 1013.01 1012.90 1012.79 1012.67 1012.55 1012.44 1012.34 1012.28 1012.24 1012.23 1012.24 1012.24 1012.24 1012.22 1012.20 1012.17 1012.17 1012.21 1012.30 1012.45 1012.67 1012.94 1013.24 1013.54 1013.84 1014.12 1014.39 1014.66 1014.94 1015.24 1015.59 1015.96 1016.35 1016.74 1017.10 1017.41 1017.65 1017.84
1013.51 1013.38 1013.30 1013.24 1013.18 1013.12 1013.03 1012.92 1012.78 1012.63 1012.48 1012.35 1012.25 1012.19 1012.16 1012.15 1012.13 1012.10 1012.05 1011.99 1011.92 1011.87 1011.87 1011.93 1012.08 1012.29 1012.58 1012.90 1013.24 1013.58 1013.91 1014.22 1014.53 1014.84 1015.17 1015.52 1015.90 1016.28 1016.66 1017.01 1017.32 1017.57 1017.77
1013.52 1013.40 1013.33 1013.30 1013.28 1013.24 1013.17 1013.05 1012.90 1012.72 1012.55 1012.39 1012.28 1012.20 1012.16 1012.14 1012.11 1012.06 1011.99 1011.89 1011.77 1011.68 1011.63 1011.65 1011.76 1011.96 1012.24 1012.56 1012.93 1013.30 1013.66 1014.01 1014.36 1014.70 1015.05 1015.41 1015.78 1016.16 1016.52 1016.86 1017.16 1017.42 1017.64
1013.58 1013.45 1013.38 1013.37 1013.37 1013.35 1013.28 1013.17 1013.01 1012.82 1012.63 1012.46 1012.34 1012.26 1012.23 1012.21 1012.18 1012.12 1012.03 1011.90 1011.76 1011.62 1011.52 1011.49 1011.55 1011.71 1011.95 1012.26 1012.62 1013.00 1013.38 1013.76 1014.13 1014.49 1014.86 1015.23 1015.61 1015.98 1016.33 1016.66 1016.95 1017.21 1017.45
1013.67 1013.52 1013.45 1013.43 1013.44 1013.42 1013.37 1013.25 1013.09 1012.90 1012.71 1012.54 1012.43 1012.36 1012.33 1012.33 1012.31 1012.26 1012.16 1012.02 1011.84 1011.66 1011.52 1011.43 1011.43 1011.53 1011.72 1011.99 1012.32 1012.68 1013.06 1013.44 1013.83 1014.21 1014.59 1014.98 1015.36 1015.73 1016.08 1016.41 1016.70 1016.97 1017.22
1013.77 1013.59 1013.51 1013.48 1013.48 1013.46 1013.41 1013.30 1013.14 1012.96 1012.77 1012.62 1012.51 1012.45 1012.44 1012.45 1012.44 1012.40 1012.30 1012.15 1011.96 1011.75 1011.57 1011.43 1011.37 1011.40 1011.53 1011.73 1012.01 1012.33 1012.68 1013.05 1013.43 1013.83 1014.22 1014.63 1015.02 1015.41 1015.77 1016.11 1016.42 1016.71 1016.97
1013.85 1013.65 1013.55 1013.50 1013.49 1013.47 1013.41 1013.30 1013.15 1012.97 1012.80 1012.65 1012.56 1012.51 1012.50 1012.52 1012.52 1012.48 1012.39 1012.23 1012.03 1011.81 1011.59 1011.41 1011.30 1011.27 1011.32 1011.46 1011.66 1011.92 1012.23 1012.57 1012.95 1013.34 1013.76 1014.18 1014.60 1015.02 1015.41 1015.78 1016.12 1016.43 1016.72
1013.89 1013.68 1013.56 1013.50 1013.47 1013.43 1013.37 1013.27 1013.12 1012.95 1012.78 1012.64 1012.54 1012.49 1012.48 1012.48 1012.48 1012.44 1012.35 1012.20 1011.99 1011.76 1011.53 1011.32 1011.17 1011.08 1011.07 1011.13 1011.26 1011.46 1011.72 1012.02 1012.37 1012.77 1013.20 1013.65 1014.11 1014.56 1015.00 1015.41 1015.79 1016.13 1016.46
1013.88 1013.68 1013.54 1013.47 1013.42 1013.37 1013.30 1013.20 1013.05 1012.88 1012.71 1012.57 1012.46 1012.39 1012.35 1012.34 1012.31 1012.26 1012.16 1012.00 1011.80 1011.58 1011.34 1011.12 1010.94 1010.81 1010.75 1010.75 1010.82 1010.95 1011.15 1011.42 1011.75 1012.13 1012.57 1013.05 1013.54 1014.05 1014.54 1015.00 1015.42 1015.81 1016.17
1013.83 1013.63 1013.50 1013.41 1013.35 1013.29 1013.21 1013.10 1012.95 1012.77 1012.60 1012.43 1012.30 1012.20 1012.13 1012.08 1012.02 1011.94 1011.82 1011.67 1011.47 1011.25 1011.03 1010.81 1010.62 1010.47 1010.37 1010.33 1010.34 1010.43 1010.58 1010.80 1011.10 1011.48 1011.92 1012.42 1012.95 1013.49 1014.03 1014.54 1015.01 1015.45 1015.85
1013.73 1013.56 1013.43 1013.34 1013.27 1013.20 1013.11 1012.98 1012.82 1012.63 1012.44 1012.25 1012.09 1011.95 1011.84 1011.74 1011.65 1011.54 1011.40 1011.24 1011.04 1010.84 1010.62 1010.42 1010.24 1010.08 1009.97 1009.90 1009.88 1009.93 1010.04 1010.23 1010.51 1010.87 1011.31 1011.81 1012.35 1012.92 1013.49 1014.04 1014.56 1015.04 1015.48
1013.61 1013.46 1013.35 1013.26 1013.18 1013.09 1012.98 1012.84 1012.66 1012.46 1012.24 1012.03 1011.84 1011.67 1011.52 1011.38 1011.24 1011.10 1010.94 1010.77 1010.58 1010.38 1010.18 1010.00 1009.83 1009.69 1009.58 1009.50 1009.47 1009.50 1009.59 1009.75 1010.00 1010.34 1010.76 1011.25 1011.80 1012.37 1012.95 1013.51 1014.05 1014.56 1015.03
1013.47 1013.35 1013.25 1013.17 1013.08 1012.97 1012.84 1012.67 1012.47 1012.25 1012.02 1011.79 1011.58 1011.38 1011.20 1011.03 1010.86 1010.69 1010.51 1010.32 1010.13 1009.94 1009.76 1009.59 1009.45 1009.33 1009.24 1009.17 1009.15 1009.17 1009.24 1009.39 1009.62 1009.93 1010.32 1010.78 1011.30 1011.85 1012.41 1012.97 1013.51 1014.02 1014.52
1013.31 1013.23 1013.14 1013.06 1012.96 1012.83 1012.67 1012.48 1012.25 1012.01 1011.77 1011.53 1011.30 1011.09 1010.89 1010.70 1010.51 1010.32 1010.12 1009.92 1009.72 1009.53 1009.36 1009.22 1009.10 1009.01 1008.94 1008.90 1008.89 1008.92 1009.01 1009.14 1009.35 1009.64 1009.99 1010.41 1010.88 1011.38 1011.90 1012.42 1012.94 1013.45 1013.94
1013.13 1013.07 1013.00 1012.92 1012.80 1012.65 1012.46 1012.24 1011.99 1011.74 1011.48 1011.24 1011.01 1010.80 1010.60 1010.40 1010.20 1009.99 1009.77 1009.56 1009.35 1009.16 1008.99 1008.86 1008.76 1008.69 1008.66 1008.66 1008.68 1008.74 1008.83 1008.97 1009.17 1009.42 1009.73 1010.10 1010.51 1010.95 1011.42 1011.89 1012.37 1012.84 1013.33
1012.92 1012.88 1012.82 1012.73 1012.60 1012.42 1012.20 1011.95 1011.69 1011.42 1011.16 1010.92 1010.70 1010.49 1010.30 1010.10 1009.89 1009.67 1009.44 1009.21 1008.98 1008.78 1008.61 1008.48 1008.40 1008.36 1008.36 1008.40 1008.46 1008.55 1008.67 1008.82 1009.00 1009.23 1009.50 1009.81 1010.16 1010.54 1010.94 1011.36 1011.79 1012.24 1012.71
1012.65 1012.63 1012.57 1012.48 1012.33 1012.12 1011.88 1011.61 1011.32 1011.04 1010.79 1010.55 1010.35 1010.15 1009.97 1009.77 1009.56 1009.33 1009.08 1008.82 1008.58 1008.36 1008.18 1008.05 1007.99 1007.97 1008.01 1008.08 1008.18 1008.30 1008.44 1008.60 1008.78 1008.99 1009.23 1009.49 1009.78 1010.11 1010.45 1010.82 1011.21 1011.63 1012.08
1012.31 1012.30 1012.25 1012.14 1011.98 1011.76 1011.50 1011.21 1010.92 1010.64 1010.38 1010.16 1009.97 1009.79 1009.61 1009.42 1009.20 1008.95 1008.68 1008.39 1008.12 1007.88 1007.69 1007.56 1007.50 1007.51 1007.57 1007.67 1007.80 1007.95 1008.11 1008.28 1008.45 1008.64 1008.84 1009.07 1009.32 1009.60 1009.90 1010.24 1010.61 1011.01 1011.46
1011.88 1011.88 1011.82 1011.72 1011.55 1011.32 1011.05 1010.76 1010.47 1010.20 1009.96 1009.76 1009.58 1009.41 1009.24 1009.04 1008.81 1008.54 1008.24 1007.93 1007.63 1007.37 1007.16 1007.02 1006.97 1006.98 1007.06 1007.18 1007.33 1007.49 1007.65 1007.81 1007.97 1008.13 1008.30 1008.50 1008.72 1008.97 1009.26 1009.59 1009.96 1010.37 1010.83
1011.36 1011.35 1011.30 1011.19 1011.02 1010.80 1010.54 1010.26 1010.00 1009.76 1009.55 1009.37 1009.21 1009.06 1008.89 1008.68 1008.43 1008.14 1007.81 1007.47 1007.14 1006.85 1006.63 1006.48 1006.42 1006.44 1006.52 1006.64 1006.79 1006.93 1007.07 1007.20 1007.32 1007.45 1007.59 1007.75 1007.95 1008.20 1008.50 1008.84 1009.24 1009.69 1010.18
1010.75 1010.73 1010.67 1010.56 1010.40 1010.20 1009.97 1009.73 1009.51 1009.32 1009.15 1009.01 1008.89 1008.75 1008.59 1008.37 1008.10 1007.78 1007.42 1007.05 1006.70 1006.39 1006.15 1006.00 1005.93 1005.93 1006.00 1006.10 1006.22 1006.33 1006.42 1006.49 1006.56 1006.62 1006.71 1006.85 1007.03 1007.28 1007.60 1007.98 1008.43 1008.93 1009.48
1010.08 1010.03 1009.96 1009.84 1009.70 1009.53 1009.35 1009.17 1009.01 1008.89 1008.79 1008.70 1008.62 1008.51 1008.35 1008.13 1007.84 1007.50 1007.12 1006.72 1006.34 1006.02 1005.77 1005.60 1005.51 1005.50 1005.54 1005.60 1005.67 1005.71 1005.73 1005.73 1005.71 1005.71 1005.74 1005.82 1005.99 1006.24 1006.58 1007.01 1007.51 1008.09 1008.71
Thickness
5706 5709 5712 5716 5719 5723 5726 5729 5731 5733 5736 5737 5739 5742 5744 5745 5746 5748 5750 5751 5752 5752 5752 5752 5753 5753 5753 5753 5754 5754 5753 5753 5753 5753 5753 5753 5753 5753 5752 5752 5752 5752 5751
5699 5702 5705 5709 5713 5716 5720 5723 5726 5728 5730 5733 5735 5739 5741 5744 5745 5747 5748 5749 5751 5752 5752 5752 5753 5753 5753 5753 5753 5753 5753 5752 5752 5752 5752 5752 5752 5751 5751 5751 5750 5750 5750
5693 5695 5698 5702 5706 5710 5714 5717 5721 5723 5726 5729 5731 5735 5738 5741 5743 5744 5746 5747 5749 5750 5751 5751 5752 5752 5752 5753 5753 5753 5752 5752 5752 5751 5751 5751 5750 5750 5750 5749 5749 5748 5748
5686 5689 5692 5695 5700 5704 5707 5711 5714 5717 5720 5723 5726 5730 5734 5737 5740 5741 5743 5745 5746 5748 5749 5750 5751 5751 5752 5752 5752 5752 5752 5752 5751 5751 5750 5750 5750 5749 5749 5748 5748 5747 5747
5680 5683 5685 5689 5693 5697 5701 5705 5708 5711 5713 5717 5721 5725 5729 5732 5735 5738 5740 5742 5744 5745 5747 5748 5749 5750 5751 5751 5752 5752 5752 5751 5751 5750 5750 5749 5749 5748 5748 5747 5747 5746 5745
5675 5677 5680 5684 5688 5691 5694 5698 5701 5705 5708 5711 5716 5721 5724 5728 5732 5734 5736 5739 5741 5743 5745 5746 5747 5749 5750 5750 5751 5751 5751 5751 5750 5750 5749 5748 5748 5747 5747 5746 5746 5745 5744
5671 5673 5675 5678 5682 5685 5688 5692 5695 5698 5702 5706 5707 5710 5717 5724 5728 5730 5733 5735 5738 5740 5742 5744 5746 5747 5748 5749 5750 5750 5750 5750 5750 5749 5749 5748 5747 5747 5746 5745 5745 5744 5743
5668 5670 5671 5674 5677 5679 5682 5686 5688 5691 5695 5699 5700 5700 5703 5711 5720 5726 5729 5731 5734 5737 5740 5742 5744 5746 5747 5748 5749 5749 5750 5750 5750 5749 5748 5748 5747 5746 5745 5744 5744 5743 5742
5666 5667 5668 5670 5673 5675 5676 5680 5683 5685 5687 5692 5696 5695 5695 5698 5707 5717 5723 5728 5731 5733 5737 5740 5742 5744 5745 5747 5747 5748 5749 5749 5749 5749 5748 5747 5746 5745 5744 5744 5743 5742 5741
5665 5665 5666 5667 5669 5671 5672 5675 5679 5680 5682 5684 5688 5692 5695 5698 5698 5703 5713 5720 5725 5729 5733 5737 5740 5741 5743 5744 5746 5747 5747 5748 5748 5748 5747 5746 5745 5744 5744 5743 5742 5741 5740
5663 5663 5664 5664 5665 5666 5668 5670 5673 5676 5677 5679 5681 5685 5688 5692 5695 5695 5699 5707 5715 5723 5728 5732 5735 5738 5740 5741 5743 5744 5746 5746 5746 5746 5746 5745 5744 5743 5742 5741 5740 5740 5738
5661 5661 5662 5661 5662 5663 5664 5666 5668 5670 5672 5675 5677 5680 5682 5684 5687 5690 5692 5697 5703 5713 5721 5726 5730 5733 5736 5738 5740 5742 5743 5744 5744 5744 5744 5744 5743 5742 5741 5740 5739 5738 5737
5658 5659 5659 5659 5660 5660 5661 5662 5663 5665 5667 5669 5672 5675 5678 5681 5684 5686 5687 5690 5695 5703 5712 5719 5725 5728 5732 5734 5736 5738 5739 5740 5741 5742 5742 5741 5741 5740 5739 5738 5738 5737 5735
5658 5658 5658 5658 5658 5658 5659 5659 5659 5660 5662 5664 5667 5670 5672 5676 5679 5681 5683 5684 5686 5692 5700 5708 5717 5722 5726 5730 5732 5734 5735 5737 5738 5739 5739 5739 5738 5738 5737 5736 5735 5735 5734
5660 5658 5657 5656 5656 5656 5656 5655 5655 5656 5657 5658 5661 5664 5666 5670 5673 5676 5679 5680 5680 5682 5689 5699 5706 5715 5719 5723 5727 5729 5731 5733 5734 5735 5735 5735 5735 5735 5734 5734 5733 5732 5731
5661 5658 5657 5656 5655 5654 5653 5652 5652 5652 5652 5653 5655 5658 5661 5664 5667 5669 5672 5674 5677 5678 5682 5692 5698 5706 5711 5716 5720 5723 5726 5729 5730 5730 5731 5731 5731 5732 5731 5731 5730 5729 5728
5661 5658 5656 5655 5653 5652 5651 5649 5648 5648 5647 5648 5649 5651 5654 5657 5659 5662 5665 5667 5670 5672 5676 5683 5690 5696 5701 5706 5711 5715 5719 5722 5725 5726 5726 5727 5728 5728 5727 5727 5726 5725 5724
5661 5659 5656 5654 5652 5650 5648 5646 5645 5644 5643 5643 5644 5646 5648 5651 5652 5655 5657 5660 5663 5666 5670 5674 5680 5685 5691 5697 5702 5706 5710 5715 5718 5720 5722 5722 5723 5723 5723 5723 5722 5721 5721
5662 5659 5656 5653 5651 5649 5647 5645 5642 5641 5640 5640 5640 5641 5642 5644 5645 5648 5651 5653 5656 5660 5664 5667 5671 5677 5682 5688 5692 5697 5702 5707 5711 5714 5715 5716 5717 5718 5718 5718 5718 5717 5717
5662 5659 5657 5654 5651 5648 5646 5643 5641 5639 5638 5637 5637 5637 5638 5639 5640 5642 5644 5647 5650 5653 5656 5660 5664 5668 5673 5679 5683 5687 5691 5697 5701 5706 5708 5710 5711 5712 5713 5713 5713 5713 5712
5663 5660 5657 5654 5651 5648 5646 5643 5640 5638 5636 5635 5635 5635 5636 5637 5639 5639 5640 5642 5644 5646 5649 5653 5656 5660 5665 5669 5674 5680 5683 5688 5692 5697 5700 5703 5704 5705 5706 5707 5708 5708 5708
5663 5660 5657 5654 5651 5650 5648 5645 5641 5637 5635 5633 5633 5634 5634 5635 5636 5637 5638 5640 5641 5642 5644 5647 5651 5654 5659 5663 5667 5671 5674 5678 5682 5690 5691 5694 5697 5698 5701 5702 5704 5703 5702
5664 5660 5657 5654 5652 5650 5649 5646 5644 5639 5636 5633 5632 5632 5633 5635 5634 5633 5634 5636 5637 5640 5643 5645 5647 5651 5655 5659 5661 5664 5668 5671 5676 5681 5682 5685 5689 5692 5695 5697 5698 5698 5698
5664 5661 5658 5656 5653 5652 5650 5648 5645 5640 5637 5635 5633 5632 5631 5631 5631 5631 5630 5631 5633 5636 5639 5643 5645 5649 5652 5654 5657 5660 5662 5664 5668 5672 5675 5676 5680 5684 5687 5689 5691 5692 5692
5665 5662 5660 5657 5654 5652 5652 5649 5646 5640 5637 5635 5634 5633 5631 5630 5630 5630 5628 5629 5630 5633 5637 5640 5643 5646 5648 5651 5652 5653 5655 5656 5659 5663 5667 5669 5672 5674 5677 5680 5683 5685 5686
5667 5664 5661 5659 5656 5654 5653 5650 5647 5640 5636 5635 5633 5632 5631 5630 5629 5629 5627 5627 5627 5630 5633 5636 5639 5642 5645 5647 5649 5650 5651 5652 5654 5656 5661 5662 5664 5664 5666 5671 5675 5677 5677